Home > Weather > Schwäbisch Hall > Past weeks

Flag for Germany Past Weather in Schwäbisch Hall, Baden-Württemberg, Germany — Yesterday and Last 2 Weeks

Now
77 °F

Scattered clouds.


Feels Like: 79 °F
Forecast: 59 / 72 °F
Wind: 9 mph from West

Location: Niederstetten

Current Time: Jul 30, 2016 at 6:59:07 PM

Latest Report: Jul 30, 2016 at 6:20 PM


Visibility: N/A

Pressure: 29.95 "Hg

Humidity: 47%

Dew Point: 55 °F

Location of Schwäbisch HallLocation

Past Weather in Schwäbisch Hall — Graph

°F

Schwäbisch Hall Temperature Yesterday

Maximum temperature yesterday: 75 °F (at 4:20 PM)
Minimum temperature yesterday: 61 °F (at 7:20 AM)
Average temperature yesterday: 68 °F

High & Low Weather Summary for the Past Weeks

 TemperatureHumidityPressure
High88 °F (Jul 20, 3:20 PM)100% (Jul 22, 12:20 AM)30.33 "Hg (Jul 22, 12:20 AM)
Low48 °F (Jul 16, 3:20 AM)29% (Jul 20, 4:20 PM)29.95 "Hg (Jul 21, 3:20 AM)
Average69 °F70%30.11 "Hg
* Reported Jul 15 5:20 PM — Jul 30 5:20 PM, Schwäbisch Hall, Weather by CustomWeather, © 2016

Note: Actual official high and low records may vary slightly from our data, if they occured in-between our weather recording intervals... More about our weather records

Advertising

Schwäbisch Hall Weather History for the Previous 24 Hours

Scroll right to see more
 ConditionsComfort  
Time TempWeatherWind HumidityBarometerVisibility
5:20 PM
Sat, Jul 30
77 °FScattered clouds.10 mph47%29.95 "HgN/A
4:20 PM79 °FPassing clouds.14 mph45%29.95 "HgN/A
3:20 PM77 °FPassing clouds.15 mph47%29.95 "HgN/A
2:20 PM75 °FScattered clouds.14 mph54%29.98 "HgN/A
1:20 PM75 °FScattered clouds.15 mph50%29.98 "HgN/A
12:20 PM73 °FScattered clouds.10 mph57%29.98 "HgN/A
11:20 AM73 °FPassing clouds.9 mph57%29.98 "HgN/A
10:20 AM72 °FPassing clouds.9 mph57%30.01 "HgN/A
9:20 AM70 °FPassing clouds.12 mph57%30.01 "HgN/A
8:20 AM68 °FPassing clouds.8 mph69%30.01 "HgN/A
7:20 AM64 °FPassing clouds.5 mph78%30.01 "HgN/A
6:20 AM61 °FPassing clouds.5 mph83%29.98 "HgN/A
5:20 AM61 °FPassing clouds.6 mph88%29.98 "HgN/A
4:20 AM63 °FPassing clouds.5 mph83%30.01 "HgN/A
3:20 AM63 °FPassing clouds.6 mph83%30.01 "HgN/A
2:20 AM63 °FPassing clouds.7 mph83%30.01 "HgN/A
1:20 AM63 °FPassing clouds.5 mph83%30.01 "HgN/A
12:20 AM63 °FPassing clouds.5 mph83%30.01 "HgN/A
11:20 PM
Fri, Jul 29
66 °FPassing clouds.6 mph73%30.01 "HgN/A
10:20 PM68 °FPassing clouds.13 mph69%29.98 "HgN/A
9:20 PM70 °FPassing clouds.10 mph64%29.98 "HgN/A
8:20 PM72 °FPassing clouds.15 mph57%29.98 "HgN/A
7:20 PM73 °FPassing clouds.16 mph57%29.98 "HgN/A
6:20 PM75 °FPassing clouds.17 mph50%29.95 "HgN/A
Weather by CustomWeather, © 2016

See weather overviewHow to use our weather pages